Location: Memphis
(29.8667°N, 31.2500°E)
Time: 07:18:16
(UTC+00:00)

SL-08 RB Rocket - Pass Details

Date: 03 March 2021
Orbit: 647 x 683 km, 97.8° (Epoch: 15 April)

Event Time Altitude Azimuth Distance (km) Brightness Sun altitude
Rises 17:07:37 0° 161° (SSE) 2,951 6.8 -16.4°
Reaches altitude 10° 17:09:49 10° 159° (SSE) 2,048 6.0 -16.9°
Maximum altitude 17:14:15 69° 77° (ENE) 702 3.5 -17.8°
Drops below altitude 10° 17:18:45 10° 354° (N) 2,079 6.4 -18.8°
Sets 17:21:00 0° 352° (N) 3,000 7.2 -19.3°
